RADUGA 27 [-]

Last updated on Sept. 26, 2020, 5:40 a.m. UTC

1 21132U 91014A   20269.90886292 -.00000371  00000-0  00000-0 0  9999
2 21132  15.1599 354.1438 0003936  40.1402  44.0319  1.00354416108353
UTC
Height (km)
Latitude
Longitude
Inclination
Orbital Period
UTC large
Height (km)
Speed (km/s)
/
Latitude / Longitude
Inclination (degrees)
Orbital Period (minutes)
Azimuth
Elevation
Range (km)
Doppler Factor
iOS Compass Heading
iOS Angle

Next 30 passes for location: Hong Kong

Rise time Rise Azimuth (degrees) Set time Set Azimuth (degrees) Duration Max altitude (degrees)

No matching passes for this satellites